Leesburg, FL

12:57 AM EDT on August 24, 2017 (GMT -0400)
Leesburg Regional

Weather History for KLEE - September, 2013

Change the Weather History Date:

Saturday, September 7, 2013

  Actual Average Record
Temperature  
Mean Temperature 80 °F -  
Max Temperature 90 °F 89 °F 98 °F (1991)
Min Temperature 71 °F 71 °F 66 °F (1991)
Cooling Degree Days 15    
Growing Degree Days 30 (Base 50)    
Moisture  
Dew Point 71 °F    
Average Humidity 80    
Maximum Humidity 97    
Minimum Humidity 57    
Precipitation  
Precipitation 0.01 in - - ()
Sea Level Pressure  
Sea Level Pressure 30.01 in    
Wind  
Wind Speed 5 mph (NE)    
Max Wind Speed 14 mph    
Max Gust Speed 33 mph    
Visibility 10 miles    
Events Rain    
Averages and records for this station are not official NWS values.
T = Trace of Precipitation, MM = Missing Value Source: NWS Daily Summary

Daily Weather History Graph

Daily Weather History Graph

Search for Another Location

Airport or City:

Trip Planner

Search our weather history database for the weather conditions in past years. The results will help you decide how hot, cold, wet, or windy it might be!

Date:

Astronomy

Sep. 07, 2013 Rise Set
Actual Time 7:08 AM EDT 7:41 PM EDT
Civil Twilight 6:44 AM EDT 8:05 PM EDT
Nautical Twilight 6:16 AM EDT 8:33 PM EDT
Astronomical Twilight 5:47 AM EDT 9:01 PM EDT
Moon 9:06 AM EDT (9/7) 8:56 PM EDT (9/7)
Length of Visible Light 13h 20m
Length of Day
12h 33m
Waxing Crescent, 5% of the Moon is Illuminated
Sep 7
Waxing Crescent
Sep 12
First Quarter
Sep 19
Full
Sep 26
Last Quarter
Oct 4
New

Hourly Weather History & Observations

Time (EDT) Temp. Heat Index Dew Point Humidity Pressure Visibility Wind Dir Wind Speed Gust Speed Precip Events Conditions
12:53 AM 73.0 °F - 72.0 °F 96% 30.04 in 10.0 mi North 3.5 mph - N/A   Clear
1:53 AM 73.0 °F - 71.1 °F 93% 30.04 in 10.0 mi NE 3.5 mph - N/A   Partly Cloudy
2:53 AM 73.0 °F - 71.1 °F 93% 30.02 in 10.0 mi NNE 3.5 mph - N/A   Clear
3:53 AM 72.0 °F - 71.1 °F 97% 30.01 in 10.0 mi North 6.9 mph - N/A   Clear
4:53 AM 72.0 °F - 71.1 °F 97% 30.00 in 10.0 mi North 6.9 mph - N/A   Scattered Clouds
5:53 AM 72.0 °F - 70.0 °F 93% 30.00 in 10.0 mi NNE 6.9 mph - N/A   Clear
6:53 AM 72.0 °F - 70.0 °F 93% 30.01 in 10.0 mi Calm Calm - 0.01 in   Clear
7:04 AM 71.6 °F - 69.8 °F 94% 30.02 in 10.0 mi Calm Calm - N/A   Partly Cloudy
7:53 AM 72.0 °F - 70.0 °F 93% 30.03 in 10.0 mi North 4.6 mph - N/A   Scattered Clouds
8:53 AM 75.0 °F - 71.1 °F 87% 30.03 in 10.0 mi North 5.8 mph - N/A   Clear
9:53 AM 79.0 °F - 73.0 °F 82% 30.04 in 10.0 mi NNE 6.9 mph - N/A   Clear
10:53 AM 82.9 °F 89.4 °F 73.9 °F 74% 30.04 in 10.0 mi NE 9.2 mph - N/A   Clear
11:53 AM 86.0 °F 95.1 °F 75.0 °F 70% 30.04 in 10.0 mi Variable 6.9 mph - N/A   Scattered Clouds
12:53 PM 88.0 °F 93.8 °F 71.1 °F 57% 30.03 in 10.0 mi ENE 6.9 mph - N/A   Partly Cloudy
1:53 PM 87.1 °F 93.6 °F 72.0 °F 61% 30.01 in 10.0 mi Variable 3.5 mph - N/A   Partly Cloudy
2:53 PM 89.1 °F 96.0 °F 72.0 °F 57% 29.99 in 10.0 mi WSW 3.5 mph - N/A   Scattered Clouds
3:39 PM 80.6 °F 83.9 °F 69.8 °F 70% 30.01 in 1.2 mi Variable 4.6 mph 33.4 mph N/A   Haze
3:49 PM 80.6 °F 83.9 °F 69.8 °F 70% 29.99 in 8.0 mi SE 13.8 mph 19.6 mph 0.00 in Rain Light Rain
3:53 PM 80.1 °F 83.6 °F 71.1 °F 74% 29.99 in 8.0 mi SE 10.4 mph 19.6 mph 0.00 in Rain Light Rain
4:53 PM 84.9 °F 90.1 °F 71.1 °F 63% 29.97 in 10.0 mi ENE 10.4 mph - 0.00 in   Clear
5:53 PM 82.9 °F 88.0 °F 72.0 °F 69% 29.96 in 10.0 mi ENE 5.8 mph - N/A   Scattered Clouds
6:53 PM 82.9 °F 87.5 °F 71.1 °F 67% 29.96 in 10.0 mi East 8.1 mph - N/A   Partly Cloudy
7:53 PM 80.1 °F 83.8 °F 72.0 °F 76% 29.97 in 10.0 mi East 4.6 mph - N/A   Clear
8:53 PM 79.0 °F - 72.0 °F 79% 30.00 in 10.0 mi East 3.5 mph - N/A   Clear
9:53 PM 77.0 °F - 72.0 °F 84% 30.01 in 10.0 mi ENE 3.5 mph - N/A   Clear
10:53 PM 75.9 °F - 72.0 °F 87% 30.00 in 10.0 mi NE 3.5 mph - N/A   Clear
11:53 PM 75.0 °F - 71.1 °F 87% 29.99 in 10.0 mi NE 4.6 mph - N/A   Clear